Tracking 28531 objects as of 26-Feb-2024
HD Live streaming from Space Station
objects crossing your sky now

STARLINK-5671

Track STARLINK-5671 now!
10-day predictions
STARLINK-5671 is classified as:


NORAD ID: 55339
Int'l Code: 2023-013J
Perigee: 565.5 km
Apogee: 566.9 km
Inclination: 43.0 °
Period: 95.8 minutes
Semi major axis: 6937 km
RCS: Unknown
Launch date: January 26, 2023
Source: United States (US)
Launch site: AIR FORCE EASTERN TEST RANGE (AFETR)
Your satellite tracking list
Your tracking list is empty




NASA's NSSDC Master Catalog

Two Line Element Set (TLE):
1 55339U 23013J   24057.24139847  .00003205  00000-0  25210-3 0  9993
2 55339  43.0043  14.7867 0001031 270.8239  89.2486 15.02550083 60024
Source of the keplerian elements: AFSPC